Location: Hopewell Observatory
(38.8698°N, 77.6988°W)
Time: 16:59:53
(UTC-04:00)

Amateur Radio Satellites - All Passes

Search period start: 01 September 2014 16:29
Search period end: 02 September 2014 16:29
Location: Hopewell Observatory, 38.8698°N, 77.6988°W

Satellite Date Start Highest point End Downlink Frequencies (MHz)
Time Altitude Azimuth
RS-15 01 Sep 17:01:54 17:13:03 79° 58° (ENE) 17:24:39 29.354 - 29.394 USB, Beacon 29.352 USB
OPAL 01 Sep 17:02:06 17:06:33 28° 98° (E) 17:10:57 ?
Hamsat 01 Sep 17:03:38 17:05:11 12° 64° (ENE) 17:06:45 145.90 MHz
TMSAT-1 01 Sep 17:05:33 17:07:21 12° 271° (W) 17:09:09 436.925 FM
ISS 01 Sep 17:05:46 17:09:06 87° 218° (SW) 17:12:26 145.800 FM
Uosat F 01 Sep 17:10:37 17:15:27 48° 260° (W) 17:20:18 435.120 FM
Sapphire 01 Sep 17:18:43 17:24:06 74° 299° (WNW) 17:29:32 437.095 MHz 1200 baud AX-25 AFSK
AO-7 01 Sep 17:30:58 17:38:48 44° 260° (W) 17:46:40 29.400 - 29.500 MHz
JAS-2 01 Sep 17:35:13 17:40:33 34° 69° (ENE) 17:45:26 435.800 - 435.900 CW/SSB, 435.910 FM
PCSat 01 Sep 17:48:29 17:53:32 39° 305° (NW) 17:58:37 145.825 MHz
Hamsat 01 Sep 18:36:19 18:40:35 62° 260° (W) 18:44:55 145.90 MHz
OPAL 01 Sep 18:40:43 18:45:25 35° 293° (WNW) 18:50:05 ?
STRAND 1 01 Sep 18:50:09 18:53:03 15° 92° (E) 18:55:56 ?
Sapphire 01 Sep 19:06:13 19:08:29 13° 319° (NW) 19:10:46 437.095 MHz 1200 baud AX-25 AFSK
RS-15 01 Sep 19:15:42 19:24:15 26° 257° (WSW) 19:33:07 29.354 - 29.394 USB, Beacon 29.352 USB
JAS-2 01 Sep 19:20:13 19:25:37 32° 262° (W) 19:30:33 435.800 - 435.900 CW/SSB, 435.910 FM
SO-67 01 Sep 19:40:27 19:43:54 76° 258° (WSW) 19:47:23 435.3500 MHz FM
STRAND 1 01 Sep 20:27:34 20:32:35 59° 287° (WNW) 20:37:36 ?
UKube-1 01 Sep 20:34:58 20:36:50 13° 63° (ENE) 20:38:42 145.840 MHz, 145.915 MHz
HO-68 01 Sep 20:46:57 20:53:46 51° 68° (ENE) 21:00:37 435.675 MHz FM
MaSat-1 01 Sep 21:33:56 21:36:10 13° 47° (NE) 21:38:16 437.345 MHz
KITSAT 1 01 Sep 21:37:33 21:39:46 11° 98° (E) 21:41:59 435.175 FM
UKube-1 01 Sep 22:08:15 22:12:31 58° 259° (W) 22:16:49 145.840 MHz, 145.915 MHz
Oscar 11 01 Sep 22:11:58 22:16:18 88° 257° (WSW) 22:20:41 145.825 FM, Beacon 2401.500 USB
AO-40 01 Sep 22:16:27 04:46:57 44° 176° (S) 06:48:48 Beacon 2401.320
HO-68 01 Sep 22:35:41 22:41:41 29° 264° (W) 22:47:43 435.675 MHz FM
Saudisat 1A 01 Sep 22:43:34 22:47:58 77° 302° (WNW) 22:52:24 436.775 MHz
FUNcube-1 01 Sep 22:43:49 22:47:59 78° 76° (ENE) 22:52:16 145.950 - 145.970 MHz USB
MaSat-1 01 Sep 23:09:23 23:13:47 64° 249° (WSW) 23:17:33 437.345 MHz
KITSAT 1 01 Sep 23:25:41 23:33:42 71° 115° (ESE) 23:41:45 435.175 FM
Sapphire 02 Sep 00:27:03 00:28:55 12° 40° (NE) 00:30:47 437.095 MHz 1200 baud AX-25 AFSK
Saudisat 1A 02 Sep 00:27:09 00:28:18 11° 321° (NW) 00:29:28 436.775 MHz
PCSat 02 Sep 00:54:49 00:58:45 20° 47° (NE) 01:02:39 145.825 MHz
KITSAT 1 02 Sep 01:22:58 01:29:47 29° 316° (NW) 01:36:38 435.175 FM
Oscar 16 02 Sep 01:37:02 01:40:16 16° 92° (E) 01:43:28 437.025 USB, Beacon 2401.1428
Sapphire 02 Sep 02:07:58 02:13:23 68° 60° (ENE) 02:18:46 437.095 MHz 1200 baud AX-25 AFSK
AO-27 02 Sep 02:09:33 02:12:07 14° 91° (E) 02:14:40 436.795 MHz FM
PCSat 02 Sep 02:37:15 02:42:37 64° 246° (WSW) 02:47:57 145.825 MHz
Oscar 19 02 Sep 02:39:26 02:44:37 66° 102° (ESE) 02:49:45 437.125 CW, 437.150 USB
AO-Echo 02 Sep 02:48:30 02:52:49 36° 98° (E) 02:57:10 ?
Gurwin Techsat 1B 02 Sep 02:50:26 02:53:33 16° 91° (E) 02:56:40 435.225 FM
Oscar 16 02 Sep 03:14:51 03:19:56 56° 288° (WNW) 03:24:59 437.025 USB, Beacon 2401.1428
ITAMSAT 1 02 Sep 03:17:10 03:22:20 64° 102° (ESE) 03:27:28 435.822 SSB
Oscar 10/S400 02 Sep 03:21:44 04:35:55 39° 234° (SW) 09:23:53 145.825 - 145.975 CW/USB, Beacon 145.810 USB
SO-50 02 Sep 03:22:41 03:27:03 61° 118° (ESE) 03:31:34 436.795 FM
Uribyol 2 02 Sep 03:26:29 03:31:42 84° 104° (ESE) 03:36:55 436.500 FM
JAS-1B 02 Sep 03:32:24 03:38:58 74° 102° (ESE) 03:44:44 435.800 - 435.900 CW/SSB
TMSAT-1 02 Sep 03:39:05 03:43:53 34° 97° (E) 03:48:38 436.925 FM
AO-7 02 Sep 03:45:29 03:47:24 11° 88° (E) 03:49:19 29.400 - 29.500 MHz
AO-27 02 Sep 03:46:55 03:52:04 66° 286° (WNW) 03:57:12 436.795 MHz FM
Sapphire 02 Sep 03:53:10 03:56:11 15° 256° (WSW) 03:59:11 437.095 MHz 1200 baud AX-25 AFSK
OPAL 02 Sep 04:15:39 04:20:25 43° 68° (ENE) 04:25:16 ?
Oscar 19 02 Sep 04:20:26 04:23:22 15° 298° (WNW) 04:26:18 437.125 CW, 437.150 USB
AO-Echo 02 Sep 04:27:49 04:31:23 22° 293° (WNW) 04:34:57 ?
Gurwin Techsat 1B 02 Sep 04:28:40 04:33:54 60° 287° (WNW) 04:39:06 435.225 FM
ITAMSAT 1 02 Sep 04:58:16 05:01:16 16° 298° (WNW) 05:04:17 435.822 SSB
SO-50 02 Sep 05:05:05 05:08:02 17° 317° (NW) 05:11:03 436.795 FM
Uribyol 2 02 Sep 05:08:29 05:10:27 12° 300° (WNW) 05:12:24 436.500 FM
UOSAT-12 02 Sep 05:08:32 05:13:02 58° 117° (ESE) 05:17:39 437.025 FM, 437.400 FM
TMSAT-1 02 Sep 05:19:11 05:23:39 29° 293° (WNW) 05:28:07 436.925 FM
Uosat F 02 Sep 05:19:23 05:24:19 57° 101° (E) 05:29:14 435.120 FM
JAS-1B 02 Sep 05:24:50 05:28:38 16° 304° (NW) 05:32:12 435.800 - 435.900 CW/SSB
AO-7 02 Sep 05:33:13 05:41:31 70° 105° (ESE) 05:49:44 29.400 - 29.500 MHz
OPAL 02 Sep 05:55:38 05:59:27 21° 264° (W) 06:03:20 ?
STRAND 1 02 Sep 06:04:49 06:08:31 21° 65° (ENE) 06:12:13 ?
Hamsat 02 Sep 06:23:52 06:27:29 25° 95° (E) 06:31:02 145.90 MHz
JAS-2 02 Sep 06:29:12 06:33:54 30° 97° (E) 06:38:57 435.800 - 435.900 CW/SSB, 435.910 FM
UOSAT-12 02 Sep 06:50:16 06:53:33 19° 316° (NW) 06:56:54 437.025 FM, 437.400 FM
Uosat F 02 Sep 06:59:32 07:02:38 17° 297° (WNW) 07:05:42 435.120 FM
Saudisat 1A 02 Sep 07:11:31 07:15:52 57° 56° (NE) 07:20:12 436.775 MHz
KITSAT 1 02 Sep 07:20:43 07:27:37 30° 45° (NE) 07:34:27 435.175 FM
RS-15 02 Sep 07:23:30 07:34:16 59° 113° (ESE) 07:44:50 29.354 - 29.394 USB, Beacon 29.352 USB
AO-7 02 Sep 07:27:06 07:33:35 27° 304° (WNW) 07:40:04 29.400 - 29.500 MHz
STRAND 1 02 Sep 07:42:29 07:47:21 46° 261° (W) 07:52:15 ?
Hamsat 02 Sep 07:59:45 08:03:21 26° 291° (WNW) 08:06:55 145.90 MHz
JAS-2 02 Sep 08:14:20 08:18:59 32° 291° (WNW) 08:23:57 435.800 - 435.900 CW/SSB, 435.910 FM
SO-67 02 Sep 08:38:23 08:41:45 50° 285° (WNW) 08:45:06 435.3500 MHz FM
Saudisat 1A 02 Sep 08:52:47 08:54:57 14° 252° (WSW) 08:57:07 436.775 MHz
KITSAT 1 02 Sep 09:15:38 09:23:38 69° 245° (WSW) 09:31:36 435.175 FM
RS-15 02 Sep 09:36:43 09:46:58 42° 315° (NW) 09:57:12 29.354 - 29.394 USB, Beacon 29.352 USB
ISS 02 Sep 09:47:13 09:50:30 62° 138° (SE) 09:53:47 145.800 FM
UKube-1 02 Sep 09:58:13 10:01:49 25° 96° (E) 10:05:23 145.840 MHz, 145.915 MHz
Oscar 11 02 Sep 10:01:53 10:04:57 18° 93° (E) 10:07:59 145.825 FM, Beacon 2401.500 USB
HO-68 02 Sep 10:03:10 10:10:14 59° 102° (ESE) 10:17:16 435.675 MHz FM
FUNcube-1 02 Sep 10:35:00 10:38:07 18° 93° (E) 10:41:14 145.950 - 145.970 MHz USB
KITSAT 1 02 Sep 11:15:55 11:17:32 11° 262° (W) 11:19:09 435.175 FM
ISS 02 Sep 11:24:57 11:27:29 20° 336° (NNW) 11:30:01 145.800 FM
PANSAT 02 Sep 11:31:11 11:33:26 15° 171° (S) 11:35:41 not established
UKube-1 02 Sep 11:34:18 11:37:56 27° 291° (WNW) 11:41:34 145.840 MHz, 145.915 MHz
Oscar 11 02 Sep 11:37:13 11:41:13 36° 289° (WNW) 11:45:12 145.825 FM, Beacon 2401.500 USB
HO-68 02 Sep 11:51:44 11:57:26 27° 300° (WNW) 12:03:08 435.675 MHz FM
SO-50 02 Sep 11:55:23 11:59:56 41° 53° (NE) 12:04:30 436.795 FM
RS-15 02 Sep 11:56:40 12:03:28 18° 348° (NNW) 12:10:19 29.354 - 29.394 USB, Beacon 29.352 USB
FUNcube-1 02 Sep 12:10:21 12:14:38 41° 288° (WNW) 12:18:57 145.950 - 145.970 MHz USB
Oscar 19 02 Sep 12:21:30 12:21:41 10° 59° (ENE) 12:21:52 437.125 CW, 437.150 USB
JAS-1B 02 Sep 12:28:08 12:32:24 14° 54° (NE) 12:36:27 435.800 - 435.900 CW/SSB
Oscar 16 02 Sep 12:52:43 12:56:38 22° 65° (ENE) 13:00:33 437.025 USB, Beacon 2401.1428
MaSat-1 02 Sep 12:54:40 12:59:30 68° 111° (ESE) 13:04:38 437.345 MHz
ITAMSAT 1 02 Sep 12:59:46 13:00:29 10° 59° (ENE) 13:01:12 435.822 SSB
Uribyol 2 02 Sep 13:07:06 13:09:32 14° 61° (ENE) 13:11:59 436.500 FM
PANSAT 02 Sep 13:10:24 13:12:58 17° 184° (S) 13:15:32 not established
AO-27 02 Sep 13:26:15 13:29:55 20° 64° (ENE) 13:33:36 436.795 MHz FM
SO-50 02 Sep 13:36:29 13:40:16 23° 249° (WSW) 13:44:04 436.795 FM
UOSAT-12 02 Sep 13:39:28 13:43:51 36° 52° (NE) 13:48:10 437.025 FM, 437.400 FM
Oscar 19 02 Sep 13:54:59 14:00:09 83° 76° (ENE) 14:05:22 437.125 CW, 437.150 USB
AO-Echo 02 Sep 14:00:07 14:04:49 43° 72° (ENE) 14:09:25 ?
Gurwin Techsat 1B 02 Sep 14:10:06 14:14:11 23° 65° (ENE) 14:18:17 435.225 FM
JAS-1B 02 Sep 14:11:58 14:21:31 64° 71° (ENE) 14:30:02 435.800 - 435.900 CW/SSB
RS-15 02 Sep 14:13:38 14:21:45 22° 25° (NNE) 14:29:59 29.354 - 29.394 USB, Beacon 29.352 USB
Oscar 16 02 Sep 14:30:47 14:35:40 43° 261° (W) 14:40:36 437.025 USB, Beacon 2401.1428
MaSat-1 02 Sep 14:33:44 14:37:02 17° 310° (NW) 14:40:25 437.345 MHz
ITAMSAT 1 02 Sep 14:33:58 14:39:08 85° 75° (ENE) 14:44:20 435.822 SSB
ISS 02 Sep 14:41:30 14:43:12 13° 17° (NNE) 14:44:55 145.800 FM
AO-7 02 Sep 14:42:02 14:47:13 18° 51° (NE) 14:52:23 29.400 - 29.500 MHz
Uribyol 2 02 Sep 14:43:13 14:48:21 74° 257° (WSW) 14:53:32 436.500 FM
PANSAT 02 Sep 14:51:44 14:52:27 10° 196° (SSW) 14:53:10 not established
TMSAT-1 02 Sep 14:58:34 15:03:36 47° 71° (ENE) 15:08:39 436.925 FM
AO-27 02 Sep 15:04:04 15:09:03 49° 260° (W) 15:14:04 436.795 MHz FM
UOSAT-12 02 Sep 15:19:59 15:23:49 25° 248° (WSW) 15:27:36 437.025 FM, 437.400 FM
PCSat 02 Sep 15:36:08 15:39:56 20° 105° (ESE) 15:43:44 145.825 MHz
Oscar 19 02 Sep 15:39:18 15:40:05 10° 271° (W) 15:40:52 437.125 CW, 437.150 USB
AO-Echo 02 Sep 15:40:10 15:43:44 20° 266° (W) 15:47:15 ?
Gurwin Techsat 1B 02 Sep 15:48:50 15:53:51 43° 261° (W) 15:58:54 435.225 FM
JAS-1B 02 Sep 16:03:52 16:12:11 32° 265° (W) 16:19:53 435.800 - 435.900 CW/SSB
ISS 02 Sep 16:17:17 16:20:33 52° 35° (NE) 16:23:48 145.800 FM
